Location: Franzen
(48.6167°N, 15.3833°E)
Time: 14:11:24
(UTC+00:00)

Cosmos 2221 - Pass Details

Date: 30 July 2021
Orbit: 593 x 614 km, 82.5° (Epoch: 21 September)

Event Time Altitude Azimuth Distance (km) Brightness Sun altitude
Rises 19:55:46 0° 338° (NNW) 2,860 7.3 -11.0°
Reaches altitude 10° 19:58:20 10° 324° (NW) 1,956 6.6 -11.3°
Maximum altitude 20:01:41 22° 273° (W) 1,323 4.9 -11.7°
Drops below altitude 10° 20:05:02 10° 222° (SW) 1,954 5.1 -12.0°
Sets 20:07:37 0° 207° (SSW) 2,856 5.8 -12.3°
